Погода в Магалуфе

Испания     39°30′48″N   2°31′58″E
темп.,
°C
ветер,
м/с
пор.,
м/с
влажн.,
%
обл.,
%
осадки,
мм/ч
давл.,
гПа
погр.,
м
5 августа, чт
чт523:00+24юв347963 0.0 1015240
02:00+23в338185 0.0 1015202
05:00+22всв22785 0.0 1015129
08:00+23в33810 0.0 1015197
11:00+26ю227112 0.0 1015572
14:00+27ююз44655 0.0 1015768
17:00+27ююз44644 0.0 1013572
20:00+25ю44725 0.0 1012405
6 августа, пт
пт623:00+24ююв237947 0.0 1012219
02:00+24ю23800 0.0 1012234
05:00+24юв23800 0.0 1010186
08:00+25юв22770 0.0 1011257
11:00+27ююв43640 0.0 1011627
14:00+28ю44580 0.0 1011657
17:00+28ююв44585 0.0 1009612
20:00+26ююв44705 0.0 1008385
7 августа, сб
сб723:00+24вюв34850 0.0 1008200
02:00+24вюв23860 0.0 1007226
05:00+24ююв34840 0.0 1006267
08:00+25ююв34800 0.0 1006235
11:00+27ююз44620 0.0 1006524
14:00+28зюз56640 0.0 1006633
17:00+30з46465 0.0 1006600
20:00+28зюз33500 0.0 1007203
8 августа, вс
вс823:00+25з23705 0.0 101055
02:00+23всв67780 0.0 1011267
05:00+22всв6780100 0.0 1011284
08:00+23всв6769100 0.0 1013401
11:00+27всв4454100 0.0 1014846
14:00+29всв244916 0.0 1015811
17:00+28ююв24520 0.0 1015797
20:00+25всв35580 0.0 1015710
9 августа, пн
пн923:00+22в55690 0.0 1017208
02:00+22всв45672 0.0 1017220
05:00+22с227241 0.0 1016140
08:00+23всв1166100 0.0 1017163
11:00+28в244559 0.0 1018704
14:00+30ю244481 0.0 1018754
17:00+28ююз445260 0.0 1018742
20:00+28ююв235590 0.0 1017320